Wind_Speed
24 24 23 23 23 22 21 20 19 17 16 15 14 14 13 13 13 13 13 13 13 13 13 12 11 10 10 9 8 8 7 7 6 6 5 4 3 2 2 2 2 2 2 2 3 3 3 4 4 5 5 6 7 8 9 10 11 11 12 13 13 13 13 13 13 13 13 13 13
24 24 24 23 23 22 21 20 19 17 16 15 14 14 13 13 13 13 13 13 13 13 12 11 10 10 9 8 8 8 7 6 6 5 4 3 2 2 2 2 2 2 2 2 2 3 3 4 5 5 6 7 7 8 9 10 10 11 12 12 13 13 13 12 13 13 13 13 13
24 24 24 23 22 21 21 20 19 17 16 15 14 14 13 13 12 12 12 12 12 11 11 10 10 9 8 8 7 7 6 5 5 4 3 2 2 2 1 1 1 1 2 2 2 3 3 4 5 6 7 7 8 9 9 10 10 11 11 11 12 12 12 12 12 13 13 13 13
24 24 23 23 22 21 21 20 18 17 16 15 14 13 12 12 11 11 10 10 10 10 10 9 9 8 8 7 7 6 5 5 4 3 3 2 2 1 1 1 1 1 1 2 2 3 4 5 5 6 7 8 8 9 9 10 10 11 11 11 12 12 12 12 12 13 12 12 12
24 24 23 23 22 21 20 19 18 17 16 14 13 12 11 11 10 10 9 9 9 9 9 9 8 8 7 7 6 5 5 4 3 3 3 2 2 1 1 1 0 1 1 2 3 4 4 5 6 6 7 8 8 9 9 10 10 11 11 11 12 12 12 12 12 12 12 12 12
24 24 24 23 22 21 20 18 17 15 14 13 12 11 11 10 10 9 9 9 9 9 9 8 8 8 8 7 6 5 4 4 4 3 3 3 2 2 1 1 0 1 2 2 3 4 5 5 6 7 7 8 8 9 9 10 10 10 11 11 11 12 12 12 12 12 12 12 12
24 24 23 22 21 20 18 17 16 15 13 12 12 11 11 11 10 10 10 10 9 9 9 9 9 9 8 8 7 6 5 4 4 4 3 3 3 2 2 1 1 1 2 3 3 4 5 5 6 6 7 7 8 9 9 9 10 10 10 10 11 11 12 12 12 13 13 13 12
23 22 22 21 20 18 17 16 15 15 14 13 13 12 12 11 11 11 11 10 10 10 10 9 9 9 9 8 7 7 6 5 5 4 3 3 3 2 2 1 1 1 2 3 3 4 4 5 5 6 6 7 7 8 8 9 9 10 10 10 10 11 12 12 13 13 13 13 13
22 21 21 20 19 18 17 16 16 15 15 14 14 13 13 12 12 12 11 11 11 10 10 9 9 9 9 9 8 7 6 5 5 4 3 3 2 2 2 1 1 1 2 2 3 3 4 4 5 5 6 6 7 7 8 8 9 9 9 9 10 10 11 12 12 13 13 13 13
22 21 20 20 19 18 17 17 16 16 16 15 15 14 14 13 13 12 12 12 11 10 10 10 9 9 9 8 8 7 6 5 4 4 3 3 2 2 2 2 2 2 2 2 2 2 3 3 4 5 5 6 6 7 8 8 9 9 9 9 10 10 10 11 11 12 13 13 13
22 21 21 20 19 19 18 18 17 17 17 16 16 15 14 14 13 13 12 12 11 11 11 10 10 9 9 8 8 7 6 5 4 4 3 3 2 2 2 2 2 2 1 1 1 2 2 3 4 4 5 6 6 7 8 8 9 9 9 10 10 10 10 10 11 12 12 13 13
22 22 21 20 20 19 19 19 18 18 17 17 16 16 15 14 14 13 12 12 12 12 11 10 10 9 9 8 7 7 6 5 5 4 3 3 2 2 2 2 1 1 1 1 1 2 2 3 3 4 5 6 7 7 8 8 9 9 9 10 10 10 10 10 11 12 12 13 13
23 22 21 21 20 20 20 20 19 19 18 17 17 16 15 15 14 13 13 13 12 12 12 11 10 10 9 8 8 7 6 6 5 4 3 3 2 1 1 1 1 1 1 1 1 2 2 3 3 4 5 5 6 7 8 8 8 9 9 10 10 10 10 10 11 11 12 12 12
23 23 22 22 22 21 21 20 20 19 18 17 17 16 16 15 14 14 13 13 13 12 12 12 11 10 9 9 8 7 7 6 5 5 3 2 1 1 0 0 0 0 1 1 1 2 2 3 4 4 5 5 6 6 7 8 8 8 9 9 10 10 10 10 10 11 11 12 12
24 24 23 23 23 22 21 21 20 19 18 17 17 16 16 15 15 14 14 13 13 13 12 12 11 10 9 9 8 7 7 6 6 5 4 2 1 0 0 1 1 1 1 2 2 2 3 4 4 4 5 5 5 6 6 7 7 8 8 8 9 9 10 10 10 10 11 11 11
25 25 24 24 23 22 21 20 19 18 18 17 17 16 16 16 15 15 14 14 13 13 12 11 11 10 9 9 8 7 7 6 6 5 4 3 1 1 1 1 2 2 2 2 3 3 4 4 5 5 5 5 6 6 6 6 7 7 7 8 8 8 9 9 10 10 10 11 11
26 26 25 24 23 22 21 20 19 19 18 17 17 17 16 16 15 15 14 14 13 13 12 11 10 10 9 9 8 7 7 6 6 6 5 3 2 1 2 2 2 2 3 3 3 4 4 5 5 5 5 6 6 6 6 6 7 7 7 7 7 8 8 9 9 10 10 10 11
26 26 24 24 23 22 21 20 20 19 18 18 17 17 16 16 15 15 14 13 13 12 12 11 10 9 9 8 8 7 6 6 6 6 5 4 2 2 2 3 3 3 3 3 4 4 5 5 5 6 6 6 6 7 7 7 8 8 8 8 8 8 9 9 9 9 10 10 11
25 25 24 23 22 22 21 20 20 19 19 18 18 17 16 15 15 14 14 13 12 11 11 10 10 9 8 8 7 7 6 6 6 5 5 3 2 2 3 3 4 4 4 4 5 5 5 6 6 6 7 7 7 8 8 9 9 9 10 10 10 10 10 10 10 10 10 11 11
24 24 23 23 22 21 21 20 20 20 19 18 17 17 16 15 14 14 13 12 12 11 10 9 9 8 8 7 6 6 5 5 5 5 4 3 2 2 3 4 5 5 5 5 5 6 6 6 6 7 7 8 8 9 9 9 10 10 11 11 11 11 12 12 12 11 11 11 12
23 23 23 22 21 21 21 20 20 19 19 18 17 16 15 15 14 13 12 12 11 10 9 8 8 7 6 6 5 4 4 4 4 4 3 2 2 3 4 5 5 6 6 6 6 6 7 7 7 7 8 8 9 9 9 10 10 10 10 11 12 12 13 13 13 13 13 13 13
23 22 22 21 21 20 20 20 19 19 18 17 16 16 15 14 13 12 11 10 10 9 8 7 6 6 5 4 3 3 3 3 3 2 2 2 2 4 5 6 6 7 7 7 7 7 7 8 8 8 9 9 9 10 10 10 10 10 11 11 12 13 13 14 14 14 14 14 14
23 22 22 21 20 20 19 19 18 17 17 16 15 14 14 13 12 11 10 9 8 7 6 6 5 4 3 3 2 2 2 2 2 2 2 2 3 4 6 7 7 7 7 7 8 8 8 8 8 8 8 8 9 9 10 10 10 11 11 12 12 13 13 14 14 15 15 15 15
22 22 21 20 20 19 18 17 17 16 16 15 14 13 12 11 10 9 8 7 6 6 5 4 3 3 2 1 1 2 2 3 3 3 3 3 4 5 6 7 8 8 8 8 8 8 8 7 6 5 6 6 7 8 9 10 11 11 11 12 12 13 14 14 14 14 15 15 15
21 21 20 19 19 18 17 16 16 15 14 13 12 12 11 10 9 8 7 6 5 4 4 3 2 2 1 1 1 2 3 3 3 4 4 4 5 6 7 8 9 9 9 9 9 8 8 7 5 5 5 6 7 8 9 9 10 11 11 12 13 14 14 14 14 14 14 15 15
20 20 19 18 17 17 16 15 14 14 13 12 11 11 10 9 8 7 6 6 5 4 3 2 2 1 0 1 1 2 3 3 4 4 5 5 6 6 8 9 9 10 9 9 9 9 8 7 7 6 6 6 7 8 8 9 10 11 12 13 13 14 14 14 14 15 15 15 15
20 19 18 17 16 16 15 14 14 13 12 11 11 10 9 8 7 7 6 5 4 3 3 2 1 1 1 1 2 2 3 4 4 5 5 6 6 7 8 9 10 10 10 10 10 9 9 8 8 7 7 7 8 8 9 9 10 11 12 12 13 13 13 14 14 15 15 16 16
19 18 17 17 16 15 14 14 13 12 11 11 10 9 8 8 7 6 6 5 4 3 2 2 1 0 1 1 2 3 3 4 5 6 6 7 7 8 9 9 10 10 10 10 10 10 10 10 9 9 8 8 8 8 9 10 10 11 11 11 12 12 13 14 14 15 16 16 17
19 18 17 16 16 15 14 13 13 12 11 10 9 8 8 7 7 6 5 4 3 3 2 1 0 1 1 2 3 3 4 5 6 7 7 8 8 9 10 10 11 11 11 11 11 11 11 11 10 10 9 9 9 9 9 9 10 10 11 11 12 13 13 14 15 15 16 17 17
18 17 17 16 15 14 14 13 12 11 10 9 9 8 7 7 6 5 4 3 3 2 1 1 1 2 2 3 4 5 5 6 7 8 9 9 9 10 11 11 12 12 12 12 12 12 12 12 11 11 11 10 10 9 9 9 10 11 12 12 13 14 15 15 16 16 17 17 17
17 17 16 15 15 14 13 12 11 10 9 9 8 7 6 6 5 4 3 3 2 2 2 2 2 3 4 5 5 6 7 8 8 9 9 10 10 11 12 12 13 13 13 13 13 12 12 12 12 11 11 11 10 10 9 9 10 11 12 13 14 15 16 16 16 17 17 17 17
17 16 15 15 14 13 12 11 11 10 9 8 7 6 6 5 4 4 3 2 2 2 3 3 4 4 5 6 7 7 8 8 9 10 10 11 11 12 13 13 13 13 13 13 12 12 12 12 12 12 12 12 11 10 10 10 11 12 13 14 15 16 17 17 17 17 18 18 17
16 15 15 14 13 13 12 11 10 9 9 8 7 6 5 5 4 4 3 3 3 3 4 4 5 5 6 6 7 8 9 9 10 10 11 11 12 12 13 13 13 13 13 12 12 12 12 12 12 12 12 12 12 11 11 11 11 12 14 15 16 17 18 18 18 18 18 18 18
16 15 14 14 13 12 12 11 10 10 9 8 7 7 6 6 5 5 4 4 4 5 5 6 6 7 7 8 8 9 10 10 10 11 11 11 11 12 12 12 12 12 12 12 12 12 12 12 12 13 13 13 13 12 12 12 13 14 15 16 18 19 19 19 19 19 19 18 18
16 15 14 14 13 13 12 12 11 10 9 9 8 7 7 6 6 6 5 5 6 6 7 7 8 8 8 9 9 10 10 10 10 10 10 10 10 11 11 11 11 11 11 11 11 11 12 12 13 13 14 14 13 13 12 13 13 15 16 17 18 19 20 21 20 20 20 20 19
15 15 15 14 14 13 13 12 12 11 10 9 8 8 7 7 7 7 6 7 7 7 8 8 8 8 9 9 9 10 10 10 10 10 9 9 10 10 11 11 11 11 10 11 11 11 12 12 13 14 14 14 14 13 12 13 14 15 16 17 19 20 20 21 21 21 21 21 20
15 15 15 14 14 14 13 13 12 11 10 9 8 8 8 8 8 8 8 8 8 8 9 9 9 9 9 9 10 10 10 9 10 10 10 9 10 10 11 11 11 11 11 11 12 12 13 13 14 14 15 15 14 14 13 13 13 14 15 17 18 19 20 20 20 20 21 21 21
15 15 15 15 14 14 13 13 12 10 10 9 9 8 8 8 9 9 9 9 9 9 9 9 9 9 9 10 10 10 10 9 10 10 10 10 10 11 12 13 13 13 12 13 13 13 14 14 15 15 15 16 15 14 13 13 13 14 14 15 17 18 18 18 19 19 20 21 22
16 16 16 15 15 14 13 12 11 10 10 9 9 9 9 9 9 9 10 10 9 9 9 9 10 10 10 10 10 10 10 10 10 11 11 11 11 12 13 14 15 14 14 14 15 15 15 15 15 16 16 16 15 14 13 13 13 13 14 15 16 16 17 17 17 18 19 21 22
18 18 17 17 16 15 14 13 11 10 10 9 9 9 9 9 9 9 9 10 9 9 9 10 10 10 10 11 11 11 11 11 11 12 12 13 13 13 14 15 16 16 16 16 16 16 16 16 16 16 16 15 14 13 12 12 13 13 14 14 14 15 15 15 15 16 17 19 21
19 19 18 17 16 15 14 12 11 10 9 9 9 9 9 9 9 9 9 9 9 9 10 10 10 10 11 11 12 12 12 12 12 13 13 14 14 15 15 16 17 17 17 17 17 17 17 16 16 15 14 13 12 12 11 12 12 13 14 14 14 14 14 14 14 15 16 17 18
Wind_Direction
209 210 210 209 208 207 206 205 204 203 201 200 200 200 201 202 203 206 208 209 209 211 213 214 214 214 215 215 214 214 215 218 220 222 224 228 234 248 266 286 300 309 317 326 335 345 352 358 3 7 10 11 13 13 15 16 17 19 21 22 22 23 23 23 21 19 18 15 12
208 210 210 210 209 207 206 204 203 201 200 201 201 202 203 203 203 204 205 206 208 210 211 211 210 209 208 208 208 209 211 213 216 219 222 229 238 253 271 287 297 307 318 326 335 344 351 356 360 3 6 6 8 8 8 9 11 14 16 16 16 18 18 18 16 16 15 13 10
207 208 209 208 207 206 204 202 201 200 200 201 203 205 206 205 205 204 203 204 205 207 207 205 204 201 199 199 201 203 205 208 211 214 218 225 236 248 265 283 297 310 322 332 342 349 355 357 360 2 3 5 4 4 4 3 6 8 10 11 11 12 13 12 11 12 12 9 7
206 206 206 206 205 204 203 202 200 200 200 202 204 205 206 206 204 202 201 201 202 201 200 197 194 190 188 188 191 195 198 201 205 207 211 214 217 225 239 261 297 322 337 347 354 357 359 0 1 1 2 2 1 0 360 360 2 3 5 6 7 7 7 6 6 7 7 5 3
205 205 205 204 203 203 203 202 201 200 201 201 201 202 203 202 199 197 195 195 194 193 192 188 183 179 177 178 180 183 188 193 195 198 196 197 194 191 191 201 299 355 357 358 360 360 360 0 0 360 359 358 357 357 357 358 359 360 360 1 1 2 2 1 1 2 2 1 359
202 203 203 203 202 202 201 201 200 199 198 197 195 195 195 194 190 187 185 184 184 184 182 178 174 170 168 168 171 176 181 185 187 186 183 179 174 169 162 152 107 21 7 1 359 357 357 358 358 357 356 355 354 354 354 355 356 356 357 356 356 356 357 357 357 358 359 358 356
201 201 201 201 201 200 198 197 195 193 191 188 187 186 186 185 181 177 175 176 176 174 173 171 169 166 164 164 167 171 177 180 179 176 172 167 161 155 147 132 87 28 9 1 357 356 355 355 356 354 353 351 351 350 350 352 352 353 353 352 351 351 352 352 353 355 356 355 354
199 199 198 198 196 195 193 191 188 186 184 181 179 178 178 176 172 170 169 169 167 167 168 169 168 166 164 162 164 167 171 172 171 168 164 159 152 146 137 114 69 31 13 5 1 358 357 355 353 352 350 349 347 345 346 346 347 348 349 348 346 346 347 348 350 352 353 353 353
193 193 193 192 190 188 186 184 182 181 178 175 173 171 170 169 167 166 163 162 163 165 166 167 167 165 161 159 160 162 165 165 163 160 158 152 144 135 123 106 77 51 31 19 11 4 360 356 352 349 346 344 342 340 340 340 341 342 343 343 342 343 344 345 348 349 349 349 351
188 187 186 185 183 182 180 177 176 175 173 169 166 165 165 164 164 163 162 161 162 163 164 165 164 162 158 155 154 155 157 158 156 152 147 143 136 128 117 106 94 78 57 39 25 12 1 355 349 344 341 339 337 336 335 336 336 336 337 337 338 340 341 343 344 345 345 345 347
184 182 181 179 178 176 174 171 169 168 167 164 161 160 160 161 161 162 162 162 161 161 162 163 162 159 154 150 149 149 150 149 147 142 137 132 130 125 120 115 106 96 78 56 31 9 358 350 344 340 337 335 333 332 332 333 333 333 334 334 336 338 340 340 340 340 341 341 343
179 178 176 175 173 171 168 166 164 163 162 160 158 157 157 159 160 160 160 160 159 159 160 160 159 156 152 148 146 144 144 142 139 135 130 127 128 128 125 122 116 108 88 50 15 360 351 345 343 340 337 334 333 333 333 333 333 333 334 335 337 339 340 338 338 338 338 339 340
175 173 172 170 167 166 164 163 161 160 159 157 156 156 157 158 159 159 158 158 158 158 158 158 156 154 150 146 144 143 141 139 135 131 128 127 128 131 132 129 121 107 77 29 7 358 353 349 347 343 341 338 337 336 335 335 335 334 335 336 337 338 338 337 337 337 337 337 338
172 170 167 165 164 163 162 161 160 159 158 157 156 156 156 157 157 157 157 157 157 157 157 156 154 151 148 145 144 143 142 139 134 130 128 127 128 130 132 95 70 59 42 26 15 8 5 1 355 351 347 343 341 340 339 339 338 337 337 337 337 336 336 336 336 336 336 336 337
167 166 164 163 162 162 162 161 159 159 158 157 156 156 156 155 155 156 156 156 156 156 156 155 152 149 146 144 144 144 143 140 134 130 126 125 121 93 358 359 14 26 35 34 27 21 14 10 3 358 354 349 346 344 342 342 341 341 339 338 337 337 336 335 335 336 335 335 335
164 163 162 162 162 162 162 162 160 159 158 157 156 156 156 155 155 155 156 156 155 155 154 153 150 148 145 144 143 144 142 139 133 129 123 118 105 62 11 2 9 20 28 32 30 24 17 11 6 2 356 352 348 346 345 344 342 341 340 338 337 336 335 334 334 334 334 334 334
162 162 162 162 163 163 164 163 161 160 159 158 157 156 156 155 155 156 156 155 155 154 153 151 148 146 144 143 141 140 137 133 128 124 119 110 93 53 15 1 1 7 13 19 21 18 13 7 2 357 354 350 347 345 343 342 341 340 338 336 335 333 332 332 332 332 332 332 332
160 161 162 163 164 165 165 164 162 161 159 158 157 157 157 156 156 155 155 154 154 154 152 149 147 144 142 141 140 138 133 127 122 118 113 103 83 39 5 351 349 351 356 1 6 6 5 360 355 351 347 345 342 341 340 340 339 338 337 335 333 332 331 330 329 329 329 329 330
160 161 162 164 165 165 165 164 162 161 159 158 158 157 157 157 156 155 154 152 151 151 150 148 145 143 141 140 139 137 132 125 118 112 104 93 65 20 351 341 338 339 342 346 351 354 353 350 347 344 342 341 339 339 339 340 339 338 336 335 333 332 330 329 328 327 327 326 326
160 161 163 164 165 164 164 163 161 159 158 158 157 156 156 156 155 154 152 150 148 148 147 145 144 141 140 139 138 135 131 123 113 104 94 79 44 1 340 332 331 331 334 337 341 344 344 342 341 339 338 338 338 338 338 339 338 336 334 332 332 331 330 329 327 326 325 324 323
160 161 162 163 163 163 161 160 159 158 156 156 156 155 154 154 153 152 150 147 146 144 142 141 140 139 137 135 134 129 122 114 104 93 80 59 18 343 328 323 323 325 326 330 334 337 337 336 335 335 337 337 336 335 334 334 333 332 330 329 329 328 328 327 327 326 325 324 323
159 160 161 161 161 160 159 158 157 155 154 154 153 153 152 151 150 149 146 144 142 140 139 137 136 134 131 128 123 113 103 93 80 69 55 26 347 326 318 316 316 317 319 323 326 329 330 332 333 335 335 335 332 330 330 329 328 327 325 324 324 325 325 325 324 324 324 323 322
158 158 158 158 158 157 156 155 154 153 152 151 151 150 149 148 147 144 143 141 139 138 137 136 133 129 124 115 100 73 53 43 32 21 7 346 326 316 310 309 309 310 313 316 319 323 327 332 336 336 332 328 324 323 323 323 323 322 321 321 321 321 322 322 322 322 322 322 321
156 156 156 155 154 154 153 152 151 150 149 149 148 148 147 145 144 142 140 139 139 139 138 137 133 128 115 95 52 22 6 1 356 346 337 326 316 310 306 304 303 304 306 309 312 316 322 330 334 330 321 315 313 313 314 316 317 318 318 318 318 318 319 319 320 320 321 320 319
154 154 153 152 152 151 150 150 150 149 149 148 147 147 146 144 143 142 141 141 141 142 140 137 134 125 109 56 9 353 345 339 335 328 321 316 311 306 302 301 300 300 302 304 307 311 315 319 320 315 308 305 304 306 307 310 312 314 315 315 316 316 317 317 318 318 318 318 317
152 152 151 150 150 149 149 149 150 149 149 148 148 147 146 145 144 143 143 143 142 140 138 135 131 123 80 13 352 343 336 328 321 315 311 308 305 302 299 297 296 297 299 301 304 307 310 312 312 310 307 305 304 304 304 304 306 309 312 313 315 316 316 316 316 316 316 316 315
150 149 149 149 148 148 149 150 150 150 150 149 149 149 147 146 145 143 143 142 140 137 137 135 131 106 19 350 339 331 323 314 308 304 302 300 299 297 295 293 293 294 297 299 302 305 308 309 310 310 309 307 304 302 301 301 302 306 309 312 314 314 314 314 314 314 315 315 315
149 148 148 148 148 149 150 151 151 152 151 151 150 148 147 145 143 142 141 140 138 137 137 138 125 22 344 334 322 312 305 302 300 298 298 298 297 295 292 291 292 294 297 299 302 304 307 308 310 312 312 309 305 302 300 300 301 304 307 310 311 312 312 313 313 313 314 314 315
149 149 149 149 150 151 152 152 153 152 152 151 149 147 145 144 142 141 140 138 140 144 149 157 297 320 317 310 305 303 301 299 299 299 299 299 298 296 294 293 295 297 299 302 304 306 308 310 313 314 316 314 310 304 300 298 298 301 304 306 309 311 312 313 313 313 314 314 314
150 150 151 152 152 152 153 153 153 153 151 150 148 146 145 143 143 143 143 146 153 164 190 258 295 299 299 299 302 303 303 303 302 301 301 300 298 297 296 297 298 301 303 304 306 309 311 313 315 317 317 317 314 307 299 295 295 298 302 305 308 311 313 313 313 313 313 313 313
153 153 153 154 154 154 154 154 154 153 151 150 148 148 147 148 149 152 159 170 184 214 259 285 292 295 297 300 303 304 304 304 303 302 302 300 299 298 298 299 301 303 305 307 309 311 312 314 316 317 318 318 316 309 300 294 294 296 300 304 309 312 314 314 314 314 313 313 311
156 155 156 156 156 156 156 156 155 154 153 152 153 154 156 160 166 174 186 203 226 254 273 286 292 296 300 303 304 305 305 305 305 304 303 302 301 300 300 300 302 304 306 309 311 312 314 314 315 317 318 318 317 310 301 294 293 295 299 304 308 312 314 313 313 313 313 312 310
159 159 159 159 160 159 159 159 159 159 160 160 163 167 173 180 189 198 212 229 249 264 275 283 289 295 299 303 304 305 305 304 304 304 304 303 303 303 302 302 303 305 307 310 312 313 314 314 315 316 317 317 316 310 302 296 294 295 299 303 307 310 311 311 311 310 310 310 309
163 163 164 165 165 165 166 166 166 167 169 171 176 182 189 196 207 218 230 244 257 267 274 279 283 287 291 294 297 299 300 301 302 302 303 303 304 303 303 304 305 307 309 312 313 314 314 314 314 315 316 316 314 309 302 297 294 295 297 300 304 306 307 308 307 306 306 306 305
169 169 170 171 172 173 173 173 174 176 178 181 186 192 198 206 217 228 238 250 259 266 271 275 279 283 287 290 292 294 296 299 299 300 301 302 302 303 303 304 307 309 311 313 314 313 313 313 313 314 314 314 312 307 300 295 293 294 295 298 299 301 302 303 302 301 301 301 300
176 176 177 178 179 180 181 181 182 184 186 189 193 199 206 214 223 232 242 251 257 262 267 272 277 281 287 291 293 294 295 296 297 297 298 299 300 300 301 303 306 309 311 312 312 312 311 311 311 312 312 311 308 303 297 293 291 292 293 294 295 296 297 297 297 296 296 296 296
184 184 185 185 186 187 187 188 188 190 192 196 200 207 215 222 229 237 245 250 254 257 262 268 274 280 285 289 291 291 291 291 292 292 293 294 295 296 298 300 303 306 308 309 308 308 308 308 308 308 308 306 303 299 294 290 288 288 288 289 289 290 292 291 291 291 291 292 293
193 194 194 194 194 193 194 193 194 196 199 204 210 217 224 231 235 241 245 248 250 254 259 266 273 279 283 285 286 286 286 286 287 288 289 290 291 292 294 296 300 303 305 306 305 305 304 304 303 303 302 301 299 296 291 287 283 282 282 283 284 285 286 285 286 286 287 289 291
202 203 203 202 201 200 199 199 200 203 207 213 220 227 233 237 240 243 246 249 251 255 261 268 274 278 280 281 281 282 283 283 284 285 286 287 289 290 292 294 297 300 302 303 303 302 302 301 300 299 298 297 296 292 288 283 280 278 278 279 281 282 283 282 282 283 284 286 290
207 207 207 205 205 204 203 203 205 209 215 221 228 234 239 242 244 247 249 252 255 260 265 270 273 276 277 278 279 280 282 283 284 286 287 288 289 291 292 293 295 298 300 301 302 301 301 299 298 297 296 295 294 290 284 281 278 277 277 278 279 281 282 281 280 280 282 284 287
207 207 205 204 204 204 204 205 209 214 221 228 234 239 243 247 249 251 253 257 261 265 268 271 273 275 276 277 278 280 281 283 285 287 289 290 291 292 293 294 295 297 299 300 301 300 300 299 298 297 296 295 292 287 283 279 278 277 278 278 279 281 282 283 281 280 280 282 284
Height
823 823 824 825 825 826 827 827 828 829 829 830 831 831 832 832 833 833 834 835 835 835 836 836 836 837 837 837 838 838 838 838 839 839 839 839 839 839 839 839 839 839 839 839 839 839 838 838 838 838 837 837 837 836 836 835 835 835 834 834 833 833 832 831 831 830 830 829 829
821 822 823 824 825 825 826 826 827 828 828 829 830 830 831 831 832 833 833 834 835 835 835 836 836 836 837 837 837 837 838 838 838 838 838 838 838 838 838 838 838 839 839 839 838 838 838 838 838 838 837 837 837 836 836 835 835 835 834 834 833 833 832 832 831 830 830 829 829
820 821 822 823 823 824 825 825 826 826 827 828 829 829 830 830 831 832 832 833 834 835 835 835 835 836 836 836 837 837 837 837 838 838 837 837 838 838 838 838 838 838 838 838 838 838 838 838 838 838 837 837 837 836 836 836 835 835 835 834 834 833 832 832 831 830 830 829 829
819 820 820 821 822 823 824 824 825 825 826 827 827 828 829 830 830 831 832 832 833 834 834 835 835 835 835 836 836 836 837 837 837 837 837 837 837 837 837 837 837 837 838 838 838 838 838 838 838 838 837 837 837 837 836 836 835 835 835 834 834 833 832 832 831 830 830 829 829
818 819 820 820 821 822 823 824 824 825 825 826 826 827 828 829 830 830 831 831 832 833 834 834 834 834 835 835 835 835 836 836 836 836 836 836 836 836 836 836 837 837 837 837 837 837 837 837 837 837 837 837 837 836 836 836 835 835 834 834 833 833 832 832 831 830 830 829 829
816 817 818 819 820 821 822 823 823 824 825 825 826 826 827 828 829 829 830 830 831 832 833 833 833 833 833 834 834 835 835 835 836 836 836 835 835 835 836 836 836 836 836 836 837 837 837 837 837 837 837 837 836 836 836 835 835 835 834 834 833 833 832 831 831 830 830 829 828
815 816 817 818 819 820 821 822 823 823 824 825 825 825 826 827 828 829 829 830 830 831 832 833 833 832 832 833 833 834 835 835 835 835 835 835 835 835 835 835 835 835 836 836 836 836 836 836 836 836 836 836 836 836 835 835 835 834 834 833 833 832 832 831 830 830 829 829 828
814 815 816 817 819 819 820 821 822 822 823 824 824 825 825 826 827 828 828 829 830 831 832 832 832 832 831 831 832 833 834 834 835 835 835 835 834 834 834 835 835 835 835 835 835 835 836 836 836 836 836 836 835 835 835 835 834 834 833 833 832 832 831 830 830 829 829 828 827
814 815 816 817 818 819 820 820 821 821 822 822 823 823 824 825 826 827 828 828 829 830 831 832 832 832 831 831 831 832 833 834 834 834 834 834 834 834 834 834 834 834 834 834 835 835 835 835 835 835 835 835 835 835 834 834 834 833 833 833 832 831 831 830 829 829 828 828 827
812 814 815 816 817 818 819 819 820 820 821 821 822 823 823 825 825 826 827 828 829 830 831 832 832 832 831 830 830 831 832 833 833 834 834 834 834 834 833 833 833 833 833 833 834 834 834 834 834 835 835 834 834 834 834 833 833 833 832 832 831 831 830 830 829 828 828 827 826
811 813 814 815 816 817 818 819 819 820 820 821 821 822 823 824 825 825 826 827 828 829 830 831 831 831 830 830 830 831 831 832 833 833 833 833 834 833 833 833 832 832 832 832 833 833 833 833 833 834 834 834 833 833 833 833 832 832 831 831 830 830 830 829 829 828 827 827 826
811 812 813 815 815 817 817 818 819 820 820 820 820 821 822 823 824 825 825 826 827 828 829 830 830 830 830 830 830 830 831 831 832 832 833 833 833 833 833 832 832 832 831 831 832 832 832 832 833 833 833 833 833 832 832 832 831 831 831 830 830 830 829 828 828 827 827 826 825
810 811 813 814 815 816 817 818 819 819 819 820 820 821 822 823 824 824 825 825 826 827 828 829 829 829 829 829 829 830 830 830 831 831 832 833 833 833 833 832 832 831 831 831 831 831 831 831 831 832 832 832 832 832 831 831 831 830 830 830 829 829 828 828 827 827 826 825 825
809 810 812 813 815 815 817 817 818 819 819 819 820 820 821 822 823 824 824 825 825 826 827 828 828 828 828 828 829 829 830 830 830 830 831 832 833 833 833 833 832 831 830 830 830 830 830 830 831 831 831 831 831 831 830 830 830 830 829 829 829 828 828 827 827 826 825 825 825
809 810 811 812 814 815 816 817 818 818 819 819 820 820 821 822 823 823 824 824 825 826 827 827 827 827 827 827 828 828 829 829 829 829 830 831 832 833 833 833 832 831 830 830 830 830 830 830 830 830 830 830 830 830 830 830 829 829 829 828 828 827 827 827 826 825 825 825 824
808 809 810 812 813 814 815 816 817 818 818 819 820 820 821 822 822 823 823 824 825 825 826 826 826 826 827 827 828 828 828 828 827 828 829 830 832 833 833 833 832 831 830 830 829 829 829 829 829 829 829 829 829 829 829 829 829 829 828 828 827 827 826 826 825 825 825 824 824
807 808 810 811 812 813 814 815 816 817 818 818 819 820 820 821 822 822 823 824 824 825 825 825 826 826 826 827 827 828 828 827 827 827 828 829 831 832 833 833 833 832 830 830 829 828 828 828 828 828 829 829 829 829 829 828 828 828 828 827 827 826 826 825 825 825 824 823 823
807 808 809 810 811 812 813 814 815 816 817 817 818 819 820 821 821 822 822 823 824 824 825 825 825 825 826 826 827 827 827 827 826 826 827 828 830 831 832 833 833 832 831 830 829 828 828 827 827 828 828 828 828 828 828 828 827 827 827 827 826 826 825 825 824 824 823 823 822
806 807 808 810 810 811 812 813 814 815 815 816 817 818 819 820 821 821 822 823 823 824 824 824 825 825 825 826 826 826 826 826 826 825 826 827 829 831 832 832 832 832 831 830 829 828 827 827 827 827 827 827 827 827 827 827 826 826 826 826 825 825 825 824 824 823 823 822 821
806 807 808 809 810 810 811 812 813 814 815 815 817 818 819 820 820 821 821 822 823 823 823 824 824 825 825 825 826 826 825 825 825 825 825 826 828 830 831 832 832 831 831 830 829 828 827 826 826 826 826 826 826 826 826 825 825 825 825 825 825 824 824 823 823 822 822 821 821
805 806 808 809 810 810 811 812 812 813 814 815 816 817 818 819 820 820 821 821 822 822 823 823 824 824 825 825 825 825 825 825 824 824 824 825 827 829 830 831 831 831 830 829 828 827 826 826 825 825 825 825 825 825 825 825 825 824 824 824 824 823 823 822 822 821 821 820 820
805 806 807 808 810 810 811 812 812 813 814 814 815 816 817 818 819 820 820 821 821 822 822 823 823 824 824 824 825 824 824 824 823 823 823 824 826 828 829 830 830 830 829 829 828 827 826 825 825 824 824 824 824 824 824 824 824 823 823 823 823 822 822 821 821 820 820 819 819
805 806 807 809 810 810 811 812 812 813 814 814 815 816 817 818 818 819 820 820 821 821 822 822 822 823 823 824 824 824 823 823 823 823 823 823 825 826 828 829 829 829 828 828 827 826 825 824 824 823 823 823 823 823 823 823 822 822 822 822 822 821 821 820 820 820 819 818 818
805 806 807 809 810 810 811 812 812 813 814 814 815 816 816 817 818 818 819 820 820 820 821 821 822 822 822 823 823 823 823 823 823 823 823 823 824 825 826 827 828 828 827 827 826 825 824 824 823 823 823 823 823 822 822 822 821 821 821 821 820 820 820 820 819 819 818 817 817
805 806 808 809 810 810 811 812 813 813 814 814 815 815 816 816 817 818 818 819 819 820 820 820 821 821 821 822 822 822 822 822 822 823 823 823 823 824 825 826 826 826 826 825 825 824 823 822 822 822 822 822 822 821 821 821 820 820 820 820 819 819 819 818 818 818 817 816 816
805 807 808 809 810 811 811 812 813 813 814 814 815 815 815 816 816 817 818 818 819 819 820 820 820 820 820 821 821 821 821 822 822 822 822 822 822 823 824 825 825 825 825 825 824 823 822 821 821 821 821 821 821 820 820 820 820 819 819 819 818 818 818 817 817 816 816 815 815
805 807 808 809 810 811 811 812 813 813 814 814 815 815 815 816 816 816 817 818 818 818 819 819 820 820 820 820 820 820 820 821 822 822 822 822 822 822 823 824 824 824 824 823 823 822 821 820 820 820 820 820 820 820 819 819 819 818 818 817 817 817 817 816 816 815 815 814 814
805 806 808 809 810 810 811 812 813 813 814 814 814 815 815 815 816 816 816 817 817 818 818 819 819 819 819 819 819 820 820 820 821 821 821 821 821 822 822 823 823 823 823 822 821 821 820 820 819 819 819 819 819 819 818 818 817 817 817 816 816 816 816 815 815 814 814 813 813
805 806 807 808 809 810 811 812 812 813 813 814 814 815 815 815 815 816 816 816 817 817 818 818 818 818 818 819 819 819 819 819 820 820 820 820 820 821 821 822 822 822 821 821 820 820 819 819 818 818 818 818 818 818 817 817 816 816 816 815 815 815 815 814 814 813 813 812 811
805 806 807 808 809 810 810 811 812 812 813 814 814 814 815 815 815 815 816 816 816 817 817 817 817 817 818 818 818 818 818 818 818 819 819 819 820 820 820 820 820 820 820 819 819 818 818 817 817 817 817 817 816 816 816 816 815 815 815 814 814 814 813 813 813 812 812 811 810
804 805 806 807 808 809 810 811 811 812 813 813 814 814 814 815 815 815 815 816 816 816 816 816 817 817 817 817 817 817 817 817 818 818 818 819 819 819 819 819 819 819 818 818 818 817 817 816 816 816 816 816 815 815 815 815 815 814 814 813 813 813 812 812 811 811 810 810 810
804 805 806 807 808 809 809 810 811 811 812 813 813 814 814 814 815 815 815 815 815 815 816 816 816 816 816 816 816 816 816 816 817 817 817 817 817 817 817 817 817 817 817 817 816 816 816 815 815 815 815 815 815 814 814 814 813 813 812 812 812 811 811 811 810 810 810 809 809
803 804 805 806 807 808 809 810 810 811 811 812 813 813 814 814 814 815 815 815 815 815 815 815 815 815 815 815 815 815 815 816 816 816 816 816 816 816 816 816 816 816 816 815 815 815 815 815 814 814 814 814 813 813 813 813 812 812 811 811 810 810 810 810 809 809 809 808 808
803 804 805 805 806 807 808 809 810 810 811 812 812 813 813 814 814 814 814 814 814 814 814 814 815 815 815 815 815 815 815 815 815 815 815 815 815 815 815 815 815 815 815 814 814 814 814 814 813 813 813 812 812 812 811 811 811 810 810 810 809 809 809 808 808 808 807 807 806
802 803 804 805 805 806 807 808 809 810 810 811 812 812 813 813 813 813 813 814 814 814 814 814 814 814 814 814 814 814 814 814 814 815 815 815 815 815 814 814 814 814 814 813 813 813 813 812 812 812 811 811 811 810 810 810 810 809 809 808 808 807 807 807 806 806 806 805 805
801 802 803 804 805 806 806 807 808 809 810 810 811 811 812 812 812 813 813 813 813 813 813 813 813 813 813 813 813 813 813 814 814 814 814 814 814 814 813 813 813 813 812 812 812 812 812 811 811 811 810 810 810 810 809 809 808 808 807 807 806 806 806 805 805 805 804 804 803
801 802 803 803 804 805 806 807 808 808 809 810 810 811 811 811 812 812 812 812 812 812 812 812 812 813 813 813 813 813 813 813 813 813 813 813 813 812 812 812 812 811 811 811 811 811 810 810 810 810 809 809 809 808 808 807 807 806 806 805 805 805 804 804 803 803 802 802 801
800 801 802 803 804 804 805 806 807 807 808 809 810 810 810 810 811 811 811 812 812 812 812 812 812 812 812 812 812 812 812 812 812 812 812 812 812 811 811 810 810 810 810 810 810 810 809 809 809 808 808 808 807 807 807 806 806 805 805 804 804 803 802 802 801 801 800 800 799
800 801 801 802 803 804 804 805 806 807 808 808 809 809 810 810 810 811 811 811 811 811 811 811 811 811 811 811 811 811 811 811 811 811 811 810 810 810 810 809 809 809 808 808 808 808 808 808 807 807 807 806 806 806 805 805 804 804 803 803 802 801 801 800 800 799 798 797 797
800 800 800 801 802 803 804 805 805 806 807 808 808 809 809 810 810 810 810 810 811 811 811 811 811 811 811 811 810 810 810 810 810 810 809 809 809 808 808 808 807 807 807 807 806 806 806 806 806 805 805 805 805 804 804 804 803 802 802 801 800 800 799 799 798 797 796 795 795
799 799 800 800 801 802 803 804 805 806 807 807 808 808 809 809 810 810 810 810 810 810 810 810 810 810 810 810 809 809 809 809 809 808 808 807 807 807 806 806 805 805 805 805 805 805 805 804 804 804 804 803 803 803 803 802 801 801 800 800 799 798 797 797 796 795 795 794 793